Weather Roundup
Issued by NWS Chicago, IL

Home | Current Version | Previous Version | Graphics & Text | Print | Product List | Glossary On
Versions: 1 2 3 4 5 6 7 8 9 10 11 12 13 14 15 16 17 18 19 20 21 22 23 24 25 26 27 28 29 30 31 32 33 34 35 36 37 38 39 40 41 42 43 44 45 46 47 48 49 50
000
NZUS59 KLOT 131910
HRRLOT

CHICAGO AREA WEATHER ROUNDUP
NATIONAL WEATHER SERVICE CHICAGO/ROMEOVILLE IL
200 PM CDT SUN JUL 13 2014

NOTE: "FAIR" INDICATES FEW OR NO CLOUDS BELOW 12,000 FEET WITH NO
SIGNIFICANT WEATHER AND/OR OBSTRUCTIONS TO VISIBILITY.

* THESE STATIONS ARE NOT UNDER NWS QUALITY CONTROL. THEY ALSO MAY NOT
  REPORT WEATHER SUCH AS PRECIPITATION OR FOG.

ILZ005-006-012>014-019>023-132000-
NORTHEAST ILLINOIS

CITY           SKY/WX    TMP DP  RH WIND       PRES   REMARKS
OHARE          MOSUNNY   83  59  44 NW10      29.91F HX  83
MIDWAY         MOSUNNY   84  61  45 W13       29.92F HX  84
AURORA         SUNNY     81  64  56 VRB3      29.94F HX  82
LANSING*       SUNNY     82  64  54 NW8       29.93F HX  83
JOLIET*        SUNNY     81  64  55 NW5       29.94F HX  82
WAUKEGAN       SUNNY     81  61  50 W6        29.89F HX  82
DUPAGE AIRPORT SUNNY     82  63  52 SW6       29.92F HX  83
WHEELING       SUNNY     84  60  44 W10       29.92F HX  84
KANKAKEE*      MOSUNNY   80  68  68 W3        29.95F HX  82
MORRIS*        SUNNY     81  69  67 NW5       29.94F HX  84
LEWIS AIRPORT* SUNNY     80  63  56 W7        29.93F HX  81
NORTHERLY IS     N/A     77  62  59 E2          N/A
$$

WIZ051-052-058>065-066-070>072-132000-
SOUTHEAST WISCONSIN

CITY           SKY/WX    TMP DP  RH WIND       PRES   REMARKS
MILWAUKEE      LGT RAIN  81  62  52 W13       29.88F HX  82
KENOSHA*       SUNNY     81  65  58 W16       29.90F HX  83
RACINE*        SUNNY     82  63  52 W13       29.90F HX  83
BURLINGTON     MOSUNNY   79  63  57 W13G20    29.90F HX  80
WAUKESHA       PTSUNNY   77  64  65 SW12      29.90F
WEST BEND      MOSUNNY   79  57  47 W17       29.88F HX  80
$$

INZ001>003-010>013-019-020-132000-
NORTHWEST INDIANA

CITY           SKY/WX    TMP DP  RH WIND       PRES   REMARKS
GARY*          MOSUNNY   82  66  57 N7        29.93  HX  85
MICHIGAN CITY* NOT AVBL
RENSSELAER*    NOT AVBL
VALPARAISO     MOSUNNY   82  64  54 NW7       29.94F HX  83
$$

LMZ740>746-132000-
SOUTHERN LAKE MICHIGAN

STATION/POSITION TIME  SKY/WX   TEMP WIND        PRES    VSBY
                                AIR  DIR/SP/G
                 (UTC)          (F)  (DEG/KT/KT) (MB)    (MI)
HARRISON CRIB    1900            74  100/  8/  9   N/A
BURNHAM HARBOR   1900            76  100/  5/ 16   N/A
CALUMET HARBOR   1900            82  270/  4/  9 1014.0F
BURNS HARBOR     NOT AVBL
MICHIGAN CITY    1900            71  240/  4/  5   N/A
$$

ABBREVIATIONS USED IN REMARKS
   TC - TEMPERATURE IN CELSIUS
  WCI - WIND CHILL INDEX
   HX - HEAT INDEX
  VSB - VISIBILITY
$$


USA.gov is the U.S. government's official web portal to all federal, state and local government web resources and services.